Retour au catalogue

SL-14 R/B

ActifPO
NORAD 20511·ROCKET BODY·🇷🇺 Russia

Lancé Feb 28, 1990 depuis Plesetsk Cosmodrome

Loading…

Prochains Passages (prochaines 24 heures)

TLE

FraisSource: Space-Track

Époque: Sep 14, 2026, 09:22 UTC

1 20511U 90018B   26257.39066452  .00000303  00000-0  34918-4 0  9999
2 20511  82.5205  46.7039 0015885 186.1013 174.0010 14.82263175950533

Suivez SL-14 R/B en temps réel avec AllMySat

Download on the App Store